TimeCST,TemperatureF,Dew PointF,Humidity,Sea Level PressureIn,VisibilityMPH,Wind Direction,Wind SpeedMPH,Gust SpeedMPH,PrecipitationIn,Events,Conditions,WindDirDegrees,DateUTC
12:53 AM,9.0,1.9,73,30.35,10.0,North,12.7,-,N/A,,Overcast,360,2013-02-20 06:53:00
1:53 AM,8.1,1.0,73,30.37,10.0,NNW,11.5,-,N/A,,Overcast,340,2013-02-20 07:53:00
2:53 AM,8.1,1.0,73,30.39,10.0,North,11.5,-,N/A,,Overcast,350,2013-02-20 08:53:00
3:53 AM,8.1,1.9,76,30.42,10.0,NNW,8.1,-,N/A,,Overcast,330,2013-02-20 09:53:00
4:53 AM,8.1,1.9,76,30.44,10.0,North,10.4,-,N/A,,Overcast,350,2013-02-20 10:53:00
5:53 AM,8.1,1.9,76,30.46,10.0,North,9.2,-,N/A,,Overcast,350,2013-02-20 11:53:00
7:53 AM,8.1,1.9,76,30.49,10.0,NNW,9.2,-,N/A,,Overcast,330,2013-02-20 13:53:00
8:53 AM,9.0,3.0,77,30.48,10.0,NNW,12.7,-,N/A,,Overcast,330,2013-02-20 14:53:00
9:53 AM,10.0,3.0,73,30.50,5.0,NNW,9.2,-,N/A,,Haze,340,2013-02-20 15:53:00
11:53 AM,12.9,5.0,71,30.50,7.0,North,9.2,-,N/A,,Overcast,10,2013-02-20 17:53:00
12:53 PM,14.0,5.0,67,30.49,10.0,NNE,9.2,-,N/A,,Overcast,20,2013-02-20 18:53:00
1:53 PM,15.1,6.1,68,30.49,10.0,North,11.5,-,N/A,,Overcast,10,2013-02-20 19:53:00
2:53 PM,16.0,5.0,62,30.51,10.0,North,8.1,-,N/A,,Overcast,10,2013-02-20 20:53:00
3:13 PM,15.8,5.0,62,30.45,10.0,ENE,3.5,-,N/A,,Scattered Clouds,70,2013-02-20 21:13:00
3:53 PM,16.0,3.9,59,30.52,10.0,ENE,3.5,-,N/A,,Clear,60,2013-02-20 21:53:00
4:53 PM,15.1,3.0,59,30.53,10.0,Calm,Calm,-,N/A,,Clear,0,2013-02-20 22:53:00
5:53 PM,10.0,1.0,67,30.54,10.0,NNE,4.6,-,N/A,,Clear,20,2013-02-20 23:53:00
7:53 PM,1.9,-2.0,83,30.54,10.0,Calm,Calm,-,N/A,,Clear,0,2013-02-21 01:53:00
8:53 PM,1.9,-2.0,83,30.52,10.0,NE,4.6,-,N/A,,Clear,40,2013-02-21 02:53:00
9:53 PM,3.0,-2.9,76,30.50,10.0,NE,3.5,-,N/A,,Clear,40,2013-02-21 03:53:00
10:53 PM,-0.9,-5.1,83,30.48,10.0,Calm,Calm,-,N/A,,Clear,0,2013-02-21 04:53:00